Location: Saint-Usage
(47.1052°N, 5.2587°E)
Time: 07:36:06
(UTC+02:00)

Nauka - Pass Details

Date: 24 September 2021
Orbit: 418 x 423 km, 51.6° (Epoch: 18 October)

Event Time Altitude Azimuth Distance (km) Brightness Sun altitude
Rises 20:51:59 0° 276° (W) 2,362 ? -14.2°
Reaches altitude 10° 20:54:10 10° 284° (WNW) 1,500 ? -14.6°
Maximum altitude 20:57:20 37° 354° (N) 667 ? -15.1°
Enters shadow 20:59:10 20° 52° (NE) 1,025 ? -15.4°
